Regional Weather Roundup
Issued by NWS Charleston, SC

Current Version | Previous Version | Graphics & Text | Print | Product List | Glossary On
Versions: 1 2 3 4 5 6 7 8 9 10 11 12 13 14 15 16 17 18 19 20 21 22 23 24 25 26 27 28 29 30 31 32 33 34 35 36 37 38 39 40 41 42 43 44 45 46 47 48 49 50
000
ASUS42 KCHS 301025
RWRCHS

REGIONAL WEATHER ROUNDUP
NATIONAL WEATHER SERVICE CHARLESTON SC
600 AM EDT WED JUL 30 2014

NOTE: "FAIR" INDICATES FEW OR NO CLOUDS BELOW 12,000 FEET WITH NO
SIGNIFICANT WEATHER AND/OR OBSTRUCTIONS TO VISIBILITY.

NOT ALL STATIONS ARE QUALITY CONTROLLED BY THE NATIONAL
WEATHER SERVICE. USE DATA WITH CAUTION...ESPECIALLY
DEWPOINT OBSERVATIONS.

SCZ027-030-031-034>040-042>050-301100-
...SOUTH CAROLINA...

CITY           SKY/WX    TMP DP  RH WIND       PRES   REMARKS
N CHARLESTON   PTCLDY    73  70  90 N3        29.97R
WATERFRONT PRK   N/A     79 N/A N/A N5          N/A
FORT JOHNSON   NOT AVBL
MOUNT PLEASANT LGT RAIN  72  70  94 CALM      29.97R
JOHNS ISLAND   SUNNY     72  68  88 CALM      29.97R
PINOPOLIS        N/A     77  72  83 E5        29.87R
MONCKS CORNER    N/A     70  70 100 CALM      29.98R FOG
SUMMERVILLE    FAIR      68  68 100 CALM      29.99R
BEAUFORT MCAS  CLEAR     74  72  93 N5        29.96R
BEAUFORT ARPT  FAIR      73  73 100 CALM      29.95R
HILTON HEAD IS NOT AVBL
GEORGETOWN     NOT AVBL
WALTERBORO     SUNNY     70 N/A N/A CALM      29.98R
ORANGEBURG     PTCLDY    72  62  71 E3        29.98R
BARNWELL       FAIR      70  64  83 N5        29.99R
AIKEN          FAIR      68  61  77 NE8       30.04R
MANNING        CLOUDY    70 N/A N/A CALM      29.99R
KINGSTREE      NOT AVBL
COLUMBIA       PTCLDY    72  58  61 VRB5      30.00R
SUMTER         PTCLDY    67  62  85 N5        29.99R
FLORENCE       CLEAR     66  62  87 CALM      29.99R
MYRTLE BEACH   CLEAR     72  66  83 N8        29.98R
N MYRTLE BEACH CLEAR     69  66  90 NE5       29.98R

$$

GAZ063-065-086>088-099>101-113>116-118-119-134-136>141-150-301100-
...GEORGIA...

CITY           SKY/WX    TMP DP  RH WIND       PRES   REMARKS
SAVANNAH ARPT  MOCLDY    73  65  75 CALM      29.96R
HUNTER AAF     PTCLDY    72  68  87 NW5       29.93R
FORT STEWART   MOCLDY    72  64  75 N5        29.95R
STATESBORO     NOT AVBL
SYLVANIA       MOSUNNY   66  66 100 CALM      29.98R
CLAXTON        FAIR     N/A N/A N/A CALM      29.97S
THOMSON        CLEAR     62  62 100 CALM      30.05S
AUGUSTA-BUSH   PTCLDY    67  60  78 NE7       29.98R
AUGUSTA-DANIEL CLEAR     71  58  63 N7        30.00R
SWAINSBORO     FAIR      66  66 100 NW3       29.99R
VIDALIA          N/A     70  61  73 NE3       29.98S
ALMA           CLOUDY    70  61  73 NW5       29.97R
WAYCROSS       MOCLDY    69  65  85 CALM      29.97S
JESUP          CLOUDY    77  64  65 N3        29.96R
BRUNSWICK      PTCLDY    73  68  83 CALM      29.95S
SAINT SIMONS   CLEAR     76  72  87 N6        29.94R

$$

SCZ027-028-034-036>038-045-046-048>050-GAZ119-141-301100-
...LAKE AND SUPPLEMENTAL COASTAL OBSERVATIONS...

STATION/POSITION TIME  TEMP    WIND        PRES    WAVE   SWELL
                       AIR SEA DIR/SP/G            HT/PER HT/PER/DIR
                 (UTC) (F)     (DEG/KT/KT) (MB)    (FT/S) (FT/S/D)
UPR LAKE MARION  NOT AVBL
WINYAH BAY       1000   72     330/  3     1014.0S
LAKE MURRAY      0900   69      20/  2/  8 1015.6R
ACE BASIN NERRS  1000   74        CALM     1014.0S
FORT PULASKI     1000   76     350/  4/  5 1014.5R
SAPELO ISLAND    1000   78     360/  4     1014.0S

$$

ANZ835-935-AMZ111-154-330-350-352-354-374-450-454-472-301100-
...C-MAN AND BUOY OBSERVATIONS...

STATION/POSITION TIME  TEMP    WIND        PRES    WAVE   SWELL
                       AIR SEA DIR/SP/G            HT/PER HT/PER/DIR
                 (UTC) (F)     (DEG/KT/KT) (MB)    (FT/S) (FT/S/D)
FOLLY BEACH CMAN 1000   81     110/  5/  6 1014.9R
BUOY 41004       1000   81 84   70/  8/ 10 1013.8R   2/ 8   2/ 8
BUOY 41008       1000   82 85   80/  8/ 10 1013.6R   1/ 8   2/120/ 8
5E ST. MARYS GA  1000      85                N/A     2/ 9
FRYING PAN BUOY  NOT AVBL
BUOY 41025       1000          VRB 12/ 16  1014.8R   3/ 6   2/ 60/ 6
CAPE LOOKOUT NC  1000   77      40/ 12/ 14 1015.2R
BUOY 41002       0857   78 80  280/ 10/ 12 1013.9    6/ 7   5/210/ 7
BUOY 41010       1000   83 84  260/ 10/ 12 1013.6R   3/ 4   2/120/ 9
BUOY 41012       NOT AVBL
ST AUGUSTINE FL  1000   74     290/  8/ 10 1013.9R
CAPERS NEARSHORE 0900   81      90/  8/  8   N/A
FRIPP NEARSHORE  NOT AVBL


$$


USA.gov is the U.S. government's official web portal to all federal, state and local government web resources and services.